This demonstration page uses our WeatherBlox Daily Observations layout. Learn more.

Hourly Observations for August 25, 2016

Temp ( °F °C ) Dew Point ( °F °C ) Humidity (%) Winds ( mph kmh ) Pressure ( in mb ) Visibility ( mi km ) Precip ( " mm )
12:15 am 00:15 Clear 59 15 53 11.6 80 80 N 7 11 30.09 1019 10 16.09344 0 0
12:35 am 00:35 Clear 59 15.1 53 11.5 79 79 N 5 7 30.12 1020 10 16.09344 0 0
12:55 am 00:55 Clear 59 15.1 52 11.2 78 78 Calm 30.09 1019 10 16.09344 0 0
1:15 am 01:15 Clear 59 14.9 52 11.1 78 78 NW 3 6 30.09 1019 10 16.09344 0 0
1:35 am 01:35 Clear 57 14.1 53 11.6 85 85 W 6 9 30.15 1021 10 16.09344 0 0
1:55 am 01:55 Clear 57 14.1 54 12 87 87 W 3 6 30.12 1020 10 16.09344 0 0
2:15 am 02:15 Clear 58 14.3 54 12.1 87 87 NW 6 9 30.12 1020 10 16.09344 0 0
2:35 am 02:35 Clear 57 14 53 11.9 87 87 WNW 3 6 30.12 1020 10 16.09344 0 0
2:55 am 02:55 Clear 56 13.6 53 11.9 90 90 Calm 30.12 1020 10 16.09344 0 0
3:15 am 03:15 Clear 57 13.7 54 12.1 90 90 Calm 30.12 1020 10 16.09344 0 0
3:35 am 03:35 Clear 57 13.7 54 12 90 90 W 3 6 30.12 1020 10 16.09344 0 0
3:55 am 03:55 Clear 57 13.8 54 12 89 89 WNW 3 6 30.12 1020 10 16.09344 0 0
4:15 am 04:15 Clear 57 14 54 12.1 88 88 WNW 5 7 30.12 1020 10 16.09344 0 0
4:35 am 04:35 Clear 57 14.1 54 12.2 88 88 Calm 30.12 1020 10 16.09344 0 0
4:55 am 04:55 Clear 57 14 55 12.5 91 91 WNW 6 9 30.12 1020 10 16.09344 0 0
5:15 am 05:15 Clear 57 14.1 55 12.5 90 90 Calm 30.12 1020 10 16.09344 0 0
5:35 am 05:35 Clear 57 14 54 12.2 89 89 W 3 6 30.12 1020 10 16.09344 0 0
5:55 am 05:55 Clear 57 13.7 54 12.3 91 91 W 3 6 30.12 1020 10 16.09344 0 0
6:15 am 06:15 Clear 57 13.7 54 12.2 91 91 WNW 5 7 30.12 1020 10 16.09344 0 0
6:35 am 06:35 Clear 56 13.5 54 12 91 91 WNW 3 6 30.12 1020 10 16.09344 0 0
6:55 am 06:55 Clear 56 13.3 53 11.9 91 91 WNW 5 7 30.12 1020 10 16.09344 0 0
7:15 am 07:15 Sunny 56 13.5 54 12 91 91 WNW 5 7 30.12 1020 10 16.09344 0 0
7:35 am 07:35 Sunny 56 13.5 54 12 91 91 W 5 7 30.15 1021 10 16.09344 0 0
7:55 am 07:55 Sunny 56 13.5 54 12.1 91 91 Calm 30.15 1021 10 16.09344 0 0
8:15 am 08:15 Sunny 56 13.5 54 12.2 92 92 W 3 6 30.15 1021 10 16.09344 0 0
8:35 am 08:35 Sunny 58 14.3 55 12.5 89 89 WNW 6 9 30.18 1022 10 16.09344 0 0
8:55 am 08:55 Sunny 59 15 55 12.5 85 85 WNW 5 7 30.15 1021 10 16.09344 0 0
9:15 am 09:15 Sunny 60 15.7 54 12.4 81 81 WNW 3 6 30.15 1021 10 16.09344 0 0
9:35 am 09:35 Sunny 62 16.4 54 12 75 75 Calm 30.15 1021 10 16.09344 0 0
9:55 am 09:55 Sunny 64 17.8 53 11.6 67 67 ENE 6 9 30.18 1022 10 16.09344 0 0
10:15 am 10:15 Sunny 64 17.9 52 11.3 65 65 NE 6 9 30.18 1022 10 16.09344 0 0
10:35 am 10:35 Sunny 66 19 52 11 60 60 NE 9 15 30.15 1021 10 16.09344 0 0
10:55 am 10:55 Sunny 68 20.1 52 11 56 56 E 9 15 30.15 1021 10 16.09344 0 0
11:15 am 11:15 Sunny 67 19.6 52 11.1 58 58 ENE 8 13 30.15 1021 10 16.09344 0 0
11:35 am 11:35 Sunny 70 21 52 11.1 53 53 E 10 17 30.15 1021 10 16.09344 0 0
11:55 am 11:55 Sunny 70 21.2 52 11 52 52 ENE 10 17 30.15 1021 10 16.09344 0 0
12:15 pm 12:15 Sunny 72 22.1 51 10.5 48 48 ENE 9 15 30.12 1020 10 16.09344 0 0
12:35 pm 12:35 Sunny 72 22.1 50 10.2 47 47 E 13 20 30.12 1020 10 16.09344 0 0
12:55 pm 12:55 Sunny 73 22.6 50 10.2 46 46 NE 3 6 30.09 1019 10 16.09344 0 0
1:15 pm 13:15 Sunny 73 23 50 10.2 44 44 NE 7 11 30.09 1019 10 16.09344 0 0
1:35 pm 13:35 Sunny 74 23.5 50 9.9 42 42 ENE 7 11 30.09 1019 10 16.09344 0 0
1:55 pm 13:55 Sunny 74 23.6 50 10.1 43 43 E 5 7 30.09 1019 10 16.09344 0 0
2:15 pm 14:15 Sunny 75 24 50 10 41 41 NNE 5 7 30.09 1019 10 16.09344 0 0
2:35 pm 14:35 Sunny 76 24.3 49 9.5 39 39 E 3 6 30.09 1019 10 16.09344 0 0
2:55 pm 14:55 Sunny 77 25.1 49 9.3 37 37 N 7 11 30.03 1017 7 11.265408 0 0
3:15 pm 15:15 Sunny 77 24.9 49 9.2 37 37 NNE 6 9 30.03 1017 10 16.09344 0 0
3:35 pm 15:35 Sunny 77 25 49 9.3 37 37 ENE 5 7 30.03 1017 10 16.09344 0 0
3:55 pm 15:55 Sunny 77 24.8 47 8.2 35 35 NE 7 11 30.06 1018 7 11.265408 0 0
4:15 pm 16:15 Sunny 78 25.3 47 8.6 35 35 ENE 7 11 30.03 1017 10 16.09344 0 0
4:35 pm 16:35 Sunny 78 25.3 48 8.7 35 35 ENE 5 7 30.03 1017 10 16.09344 0 0
4:55 pm 16:55 Sunny 78 25.6 47 8.6 34 34 ENE 6 9 30 1016 10 16.09344 0 0
5:15 pm 17:15 Sunny 78 25.4 47 8.5 34 34 E 6 9 30 1016 10 16.09344 0 0
5:35 pm 17:35 Sunny 79 25.9 48 8.9 34 34 E 7 11 30 1016 10 16.09344 0 0
5:55 pm 17:55 Sunny 78 25.5 48 8.8 35 35 ESE 7 11 30 1016 10 16.09344 0 0
6:15 pm 18:15 Sunny 78 25.3 49 9.2 36 36 E 8 13 30 1016 10 16.09344 0 0
6:35 pm 18:35 Sunny 77 25 51 10.4 40 40 SE 9 15 30 1016 10 16.09344 0 0
6:55 pm 18:55 Sunny 76 24.5 51 10.8 42 42 ESE 8 13 30.03 1017 10 16.09344 0 0
7:15 pm 19:15 Sunny 75 24 52 11 44 44 E 9 15 30.03 1017 10 16.09344 0 0
7:35 pm 19:35 Sunny 74 23.2 53 11.8 49 49 SE 7 11 30.03 1017 10 16.09344 0 0
7:55 pm 19:55 Sunny 72 22.4 54 12.4 53 53 ESE 6 9 30.03 1017 10 16.09344 0 0
8:15 pm 20:15 Sunny 71 21.6 55 12.5 56 56 ESE 6 9 30.06 1018 10 16.09344 0 0
8:35 pm 20:35 Clear 69 20.3 55 12.8 62 62 E 5 7 30.09 1019 10 16.09344 0 0
8:55 pm 20:55 Clear 64 18 56 13.4 75 75 E 6 9 30.09 1019 10 16.09344 0 0
9:15 pm 21:15 Clear 64 17.7 56 13.2 75 75 E 6 9 30.12 1020 10 16.09344 0 0
9:35 pm 21:35 Clear 63 17.3 56 13.2 77 77 E 6 9 30.12 1020 10 16.09344 0 0
9:55 pm 21:55 Clear 62 16.5 56 13.2 81 81 E 5 7 30.12 1020 10 16.09344 0 0
10:15 pm 22:15 Clear 60 15.8 55 13 84 84 E 6 9 30.12 1020 10 16.09344 0 0
10:35 pm 22:35 Clear 61 16.1 54 12.4 79 79 E 7 11 30.12 1020 10 16.09344 0 0
10:55 pm 22:55 Clear 62 16.6 55 12.6 77 77 ESE 6 9 30.15 1021 10 16.09344 0 0
11:15 pm 23:15 Clear 62 16.6 55 12.5 77 77 E 5 7 30.15 1021 10 16.09344 0 0
11:35 pm 23:35 Clear 61 16.1 55 12.5 79 79 E 6 9 30.15 1021 10 16.09344 0 0
11:55 pm 23:55 Clear 59 15.2 55 12.5 84 84 Calm 30.15 1021 10 16.09344 0 0

Powered by AerisWeather